Date String (YYYY-MM-DD hh:mm:ss) UTC,Instrument flags,Ambient pressure (hPa),Sample flow (lpm),Bypass flow (lpm),Sample temperature (°C),Ambient temperature (°C),ASC tube jacket temperature (°C),LED temperature (°C),Box temperature (°C),Sample RH (%),Span deviation,Mass concentration (μg/m³),Mass concentration (μg/m³),Mass concentration (μg/m³)
DateTimeUTC,F1_M11,P_M11,Q1_M11,Q2_M11,T1_M11,T2_M11,T3_M11,T4_M11,T5_M11,U1_M11,ZSPAN_M11,X2_M11,X0_M11,X1_M11
2022-03-16 05:00:00,,0823.3,5.02,0.00,28.6,27.7,00.0,37.6,30.3,07.0,0000.0,0000.90,0003.00,0000.53
2022-03-16 05:01:00,,0823.4,5.00,0.00,28.6,27.7,00.0,37.6,30.2,07.0,0000.0,0000.91,0003.17,0000.53
2022-03-16 05:02:00,,0823.4,4.99,0.00,28.6,27.7,00.0,37.6,30.3,06.9,0000.0,0000.89,0003.14,0000.52
2022-03-16 05:03:00,,0823.4,5.00,0.00,28.6,27.7,00.0,37.6,30.3,06.8,0000.0,0000.91,0003.47,0000.52
2022-03-16 05:04:00,,0823.3,5.02,0.00,28.6,27.7,00.0,37.6,30.3,06.7,0000.0,0000.92,0003.77,0000.51
2022-03-16 05:05:00,,0823.3,4.99,0.00,28.6,27.7,00.0,37.6,30.2,06.8,0000.0,0000.93,0003.79,0000.52
2022-03-16 05:06:00,,0823.4,4.99,0.00,28.6,27.7,00.0,37.6,30.2,06.8,0000.0,0000.87,0003.89,0000.51
2022-03-16 05:07:00,,0823.4,5.02,0.00,28.6,27.7,00.0,37.6,30.2,06.8,0000.0,0000.89,0005.47,0000.52
2022-03-16 05:08:00,,0823.4,4.99,0.00,28.6,27.7,00.0,37.6,30.2,06.8,0000.0,0000.88,0005.46,0000.52
2022-03-16 05:09:00,,0823.3,5.00,0.00,28.6,27.7,00.0,37.6,30.3,06.8,0000.0,0000.88,0005.50,0000.52
2022-03-16 05:10:00,,0823.3,5.01,0.00,28.6,27.7,00.0,37.6,30.3,06.9,0000.0,0000.89,0005.54,0000.52
2022-03-16 05:11:00,,0823.3,5.01,0.00,28.6,27.7,00.0,37.6,30.2,06.9,0000.0,0000.93,0004.43,0000.52
2022-03-16 05:12:00,,0823.3,4.99,0.00,28.6,27.7,00.0,37.6,30.3,07.0,0000.0,0000.94,0004.42,0000.53
2022-03-16 05:13:00,,0823.3,5.00,0.00,28.6,27.7,00.0,37.6,30.2,07.1,0000.0,0000.97,0005.41,0000.54
2022-03-16 05:14:00,,0823.3,5.00,0.00,28.6,27.7,00.0,37.6,30.3,07.0,0000.0,0000.96,0005.16,0000.54
2022-03-16 05:15:00,,0823.4,5.01,0.00,28.6,27.7,00.0,37.6,30.3,07.0,0000.0,0000.98,0004.87,0000.54
2022-03-16 05:16:00,,0823.4,4.99,0.00,28.6,27.7,00.0,37.6,30.3,07.1,0000.0,0000.98,0004.86,0000.54
2022-03-16 05:17:00,,0823.4,4.99,0.00,28.6,27.7,00.0,37.6,30.3,06.9,0000.0,0001.00,0004.75,0000.54
2022-03-16 05:18:00,,0823.4,5.01,0.00,28.6,27.7,00.0,37.6,30.3,06.9,0000.0,0000.96,0003.06,0000.54
2022-03-16 05:19:00,,0823.4,5.00,0.00,28.6,27.7,00.0,37.6,30.3,06.9,0000.0,0000.92,0002.92,0000.54
2022-03-16 05:20:00,,0823.3,4.98,0.00,28.6,27.8,00.0,37.6,30.3,06.9,0000.0,0000.88,0002.83,0000.54
2022-03-16 05:21:00,,0823.3,5.02,0.00,28.6,27.8,00.0,37.6,30.3,06.9,0000.0,0000.88,0002.80,0000.54
2022-03-16 05:22:00,,0823.2,4.98,0.00,28.6,27.7,00.0,37.6,30.3,06.9,0000.0,0000.85,0002.74,0000.54
2022-03-16 05:23:00,,0823.2,5.01,0.00,28.6,27.8,00.0,37.6,30.3,06.9,0000.0,0000.84,0002.54,0000.54
2022-03-16 05:24:00,,0823.2,5.00,0.00,28.6,27.8,00.0,37.6,30.3,06.9,0000.0,0000.83,0001.56,0000.54
2022-03-16 05:25:00,,0823.2,4.99,0.00,28.6,27.8,00.0,37.6,30.4,06.9,0000.0,0000.85,0001.60,0000.55
2022-03-16 05:26:00,,0823.3,5.01,0.00,28.6,27.8,00.0,37.6,30.3,07.0,0000.0,0000.83,0001.64,0000.54
2022-03-16 05:27:00,,0823.2,5.00,0.00,28.6,27.7,00.0,37.6,30.3,07.0,0000.0,0000.82,0001.60,0000.55
2022-03-16 05:28:00,,0823.2,5.00,0.00,28.6,27.7,00.0,37.6,30.3,07.0,0000.0,0000.80,0001.54,0000.54
2022-03-16 05:29:00,,0823.2,5.02,0.00,28.6,27.8,00.0,37.6,30.4,07.0,0000.0,0000.84,0001.62,0000.54
2022-03-16 05:30:00,,0823.2,4.99,0.00,28.6,27.7,00.0,37.6,30.3,07.0,0000.0,0000.88,0001.72,0000.53
2022-03-16 05:31:00,,0823.2,4.99,0.00,28.6,27.7,00.0,37.6,30.3,07.1,0000.0,0000.88,0001.74,0000.54
2022-03-16 05:32:00,,0823.3,5.01,0.00,28.6,27.7,00.0,37.6,30.3,07.1,0000.0,0000.90,0001.78,0000.54
2022-03-16 05:33:00,,0823.2,5.01,0.00,28.6,27.7,00.0,37.6,30.3,07.1,0000.0,0000.89,0001.74,0000.53
2022-03-16 05:34:00,,0823.2,4.99,0.00,28.6,27.7,00.0,37.6,30.3,07.2,0000.0,0000.89,0001.73,0000.53
2022-03-16 05:35:00,,0823.2,5.01,0.00,28.6,27.7,00.0,37.6,30.3,07.2,0000.0,0000.88,0001.63,0000.53
2022-03-16 05:36:00,,0823.2,4.99,0.00,28.6,27.7,00.0,37.6,30.3,07.1,0000.0,0000.87,0001.68,0000.52
2022-03-16 05:37:00,,0823.2,4.99,0.00,28.6,27.7,00.0,37.6,30.3,07.1,0000.0,0000.84,0001.55,0000.53
2022-03-16 05:38:00,,0823.2,5.00,0.00,28.6,27.6,00.0,37.6,30.2,07.1,0000.0,0000.85,0001.58,0000.53
2022-03-16 05:39:00,,0823.1,5.00,0.00,28.6,27.6,00.0,37.6,30.3,07.0,0000.0,0000.87,0001.66,0000.53
2022-03-16 05:40:00,,0823.1,5.01,0.00,28.6,27.7,00.0,37.6,30.3,06.9,0000.0,0000.82,0001.52,0000.53
2022-03-16 05:41:00,,0823.1,4.99,0.00,28.6,27.7,00.0,37.6,30.3,06.9,0000.0,0000.76,0001.38,0000.52
2022-03-16 05:42:00,,0823.1,4.99,0.00,28.6,27.7,00.0,37.6,30.3,06.9,0000.0,0000.80,0001.50,0000.53
2022-03-16 05:43:00,,0823.1,5.02,0.00,28.6,27.7,00.0,37.6,30.3,06.8,0000.0,0000.79,0001.46,0000.52
2022-03-16 05:44:00,,0823.1,5.00,0.00,28.6,27.7,00.0,37.6,30.3,06.8,0000.0,0000.78,0001.43,0000.52
2022-03-16 05:45:00,,0823.1,4.99,0.00,28.5,27.7,00.0,37.5,30.3,06.8,0000.0,0000.77,0001.42,0000.51
2022-03-16 05:46:00,,0823.1,5.01,0.00,28.5,27.6,00.0,37.5,30.2,07.3,0000.0,0000.77,0001.46,0000.51
2022-03-16 05:47:00,,0823.1,4.99,0.00,28.5,27.6,00.0,37.5,30.1,07.1,0000.0,0000.81,0001.51,0000.52
2022-03-16 05:48:00,,0823.1,5.01,0.00,28.4,27.5,00.0,37.5,30.1,06.9,0000.0,0000.83,0001.50,0000.53
2022-03-16 05:49:00,,0823.1,4.99,0.00,28.4,27.5,00.0,37.5,30.0,06.7,0000.0,0000.82,0001.48,0000.53
2022-03-16 05:50:00,,0823.1,4.99,0.00,28.4,27.4,00.0,37.5,30.0,06.8,0000.0,0000.80,0001.42,0000.52
2022-03-16 05:51:00,,0823.1,5.02,0.00,28.3,27.4,00.0,37.5,30.0,07.1,0000.0,0000.89,0001.68,0000.53
2022-03-16 05:52:00,,0823.0,5.00,0.00,28.3,27.4,00.0,37.4,30.0,07.1,0000.0,0000.95,0001.88,0000.54
2022-03-16 05:53:00,,0823.0,4.99,0.00,28.3,27.4,00.0,37.4,30.0,07.1,0000.0,0000.93,0001.80,0000.54
2022-03-16 05:54:00,,0822.9,5.00,0.00,28.3,27.4,00.0,37.4,30.0,06.9,0000.0,0000.95,0001.92,0000.54
2022-03-16 05:55:00,,0822.9,5.01,0.00,28.3,27.4,00.0,37.4,30.0,06.7,0000.0,0000.98,0002.00,0000.55
2022-03-16 05:56:00,,0823.0,5.00,0.00,28.3,27.4,00.0,37.4,30.0,06.8,0000.0,0000.97,0001.96,0000.56
2022-03-16 05:57:00,,0823.0,4.98,0.00,28.3,27.4,00.0,37.4,30.0,06.7,0000.0,0000.95,0001.90,0000.56
2022-03-16 05:58:00,,0822.9,5.01,0.00,28.3,27.4,00.0,37.4,30.0,06.6,0000.0,0000.94,0001.88,0000.56
2022-03-16 05:59:00,,0822.9,5.00,0.00,28.3,27.4,00.0,37.4,30.0,06.5,0000.0,0000.92,0001.86,0000.56
